Tracking 19794 objects as of 21-Jul-2019
HD Live streaming from Space Station
objects crossing your sky now

NOAA 16 DEB

Track NOAA 16 DEB now!
10-day predictions


NORAD ID: 41210
Int'l Code: 2000-055DP
Perigee: 849.8 km
Apogee: 890.2 km
Inclination: 98.9 °
Period: 102.2 minutes
Semi major axis: 7241 km
RCS: Unknown
Launch date: September 21, 2000
Source: United States (US)
Launch site: AIR FORCE WESTERN TEST RANGE (AFWTR)

Note: This is SATELLITE DEBRIS
aabbcc
Your satellite tracking list
Your tracking list is empty




NASA's NSSDC Master Catalog

Two Line Element Set (TLE):
1 41210U 00055DP  19201.44343180  .00000198  00000-0  13906-3 0  9998
2 41210  98.8544 269.5912 0027864 104.4534 255.9730 14.08974908186332
Source of the keplerian elements: AFSPC